TimeCDT,TemperatureF,Dew PointF,Humidity,Sea Level PressureIn,VisibilityMPH,Wind Direction,Wind SpeedMPH,Gust SpeedMPH,PrecipitationIn,Events,Conditions,WindDirDegrees,DateUTC
12:56 AM,54.0,41.0,62,29.79,10.0,WNW,6.9,-,N/A,,Overcast,290,2012-10-09 05:56:00
1:56 AM,52.0,39.9,63,29.79,10.0,WNW,5.8,-,0.00,Rain,Light Rain,290,2012-10-09 06:56:00
2:56 AM,51.1,39.9,66,29.78,10.0,Variable,3.5,-,0.00,,Overcast,0,2012-10-09 07:56:00
3:56 AM,50.0,41.0,71,29.79,10.0,West,4.6,-,N/A,,Mostly Cloudy,260,2012-10-09 08:56:00
4:56 AM,48.9,43.0,80,29.81,10.0,West,10.4,-,N/A,,Overcast,260,2012-10-09 09:56:00
5:56 AM,48.9,41.0,74,29.83,10.0,WNW,11.5,-,N/A,,Overcast,300,2012-10-09 10:56:00
6:56 AM,48.0,39.9,74,29.86,10.0,WNW,9.2,-,N/A,,Overcast,300,2012-10-09 11:56:00
7:56 AM,46.0,34.0,63,29.89,10.0,NW,10.4,-,N/A,,Overcast,320,2012-10-09 12:56:00
8:56 AM,46.0,30.9,56,29.91,10.0,NW,15.0,-,N/A,,Overcast,310,2012-10-09 13:56:00
9:56 AM,46.0,25.0,44,29.93,10.0,WNW,17.3,29.9,N/A,,Scattered Clouds,300,2012-10-09 14:56:00
10:56 AM,46.0,23.0,40,29.94,10.0,NW,20.7,32.2,N/A,,Scattered Clouds,310,2012-10-09 15:56:00
11:56 AM,50.0,25.0,38,29.93,10.0,WNW,20.7,33.4,N/A,,Partly Cloudy,300,2012-10-09 16:56:00
12:56 PM,50.0,25.0,38,29.94,10.0,NW,25.3,34.5,N/A,,Scattered Clouds,320,2012-10-09 17:56:00
1:56 PM,48.0,26.1,42,29.96,10.0,NW,25.3,34.5,N/A,,Overcast,320,2012-10-09 18:56:00
2:56 PM,46.9,27.0,46,29.97,10.0,NW,24.2,33.4,N/A,,Overcast,310,2012-10-09 19:56:00
3:56 PM,46.0,28.0,50,30.00,10.0,NNW,19.6,26.5,N/A,,Overcast,340,2012-10-09 20:56:00
4:56 PM,46.0,27.0,47,30.02,10.0,NW,20.7,29.9,N/A,,Overcast,320,2012-10-09 21:56:00
5:56 PM,46.0,26.1,46,30.04,10.0,NW,15.0,24.2,N/A,,Mostly Cloudy,320,2012-10-09 22:56:00
6:56 PM,44.1,24.1,45,30.06,10.0,NW,12.7,-,N/A,,Mostly Cloudy,320,2012-10-09 23:56:00
7:56 PM,44.1,25.0,47,30.07,10.0,NW,11.5,-,N/A,,Mostly Cloudy,320,2012-10-10 00:56:00
8:56 PM,41.0,25.0,53,30.09,10.0,NW,5.8,-,N/A,,Mostly Cloudy,310,2012-10-10 01:56:00
9:56 PM,39.0,25.0,57,30.10,10.0,West,4.6,-,N/A,,Mostly Cloudy,260,2012-10-10 02:56:00
10:56 PM,37.0,23.0,57,30.12,10.0,West,4.6,-,N/A,,Scattered Clouds,270,2012-10-10 03:56:00
11:56 PM,34.0,23.0,64,30.12,10.0,West,4.6,-,N/A,,Scattered Clouds,270,2012-10-10 04:56:00